Tel Aviv, Israel

1:23 PM IST on November 23, 2017 (GMT +0200)
Ben Gurion

Weather History for LLBG - November, 2017

Change the Weather History Date:

Wednesday, November 15, 2017

  Actual Average Record
Temperature  
Mean Temperature 67 °F -  
Max Temperature 80 °F 70 °F 90 °F (2015)
Min Temperature 54 °F 53 °F 53 °F (1997)
Cooling Degree Days 2    
Growing Degree Days 17 (Base 50)    
Moisture  
Dew Point 51 °F    
Average Humidity 57    
Maximum Humidity 77    
Minimum Humidity 15    
Precipitation  
Precipitation 0.00 in - - ()
Sea Level Pressure  
Sea Level Pressure 30.05 in    
Wind  
Wind Speed 4 mph ()    
Max Wind Speed 14 mph    
Max Gust Speed -    
Visibility 6.0 miles    
Events      
Averages and records for this station are not official NWS values.
T = Trace of Precipitation, MM = Missing Value Source: Averaged Metar Reports

Daily Weather History Graph

Daily Weather History Graph

Search for Another Location

Airport or City:

Trip Planner

Search our weather history database for the weather conditions in past years. The results will help you decide how hot, cold, wet, or windy it might be!

Date:

Astronomy

Nov. 15, 2017 Rise Set
Actual Time 6:09 AM IST 4:40 PM IST
Civil Twilight 5:43 AM IST 5:06 PM IST
Nautical Twilight 5:13 AM IST 5:36 PM IST
Astronomical Twilight 4:44 AM IST 6:05 PM IST
Moon 3:04 AM IST (11/15) 3:11 PM IST (11/15)
Length of Visible Light 11h 23m
Length of Day
10h 31m
Waning Crescent, 9% of the Moon is Illuminated
Nov 15
Waning Crescent
Nov 18
New
Nov 26
First Quarter
Dec 3
Full
Dec 10
Last Quarter

Hourly Weather History & Observations

Time (IST) Temp. Dew Point Humidity Pressure Visibility Wind Dir Wind Speed Gust Speed Precip Events Conditions
12:20 AM 62.6 °F 51.8 °F 68% 30.06 in - Variable 3.5 mph - N/A   Clear
12:50 AM 60.8 °F 50.0 °F 68% 30.06 in - Variable 1.2 mph - N/A   Clear
1:20 AM 60.8 °F 51.8 °F 72% 30.06 in - Variable 2.3 mph - N/A   Clear
1:50 AM 59.0 °F 50.0 °F 72% 30.06 in - Variable 3.5 mph - N/A   Clear
2:00 AM 59 °F 51 °F 66% 30.07 in 6 mi 3.5 mph - -  
2:20 AM 60.8 °F 51.8 °F 72% 30.06 in - Variable 2.3 mph - N/A   Clear
3:20 AM 57.2 °F 50.0 °F 77% 30.04 in - Variable 2.3 mph - N/A   Clear
3:50 AM 55.4 °F 48.2 °F 77% 30.04 in - Variable 1.2 mph - N/A   Clear
4:20 AM 57.2 °F 48.2 °F 72% 30.04 in - Variable 3.5 mph - N/A   Clear
4:50 AM 55.4 °F 48.2 °F 77% 30.06 in - Variable 1.2 mph - N/A   Clear
5:00 AM 55 °F 48 °F 69% 30.08 in 6 mi 1.2 mph - -  
5:20 AM 55.4 °F 46.4 °F 72% 30.06 in - Variable 3.5 mph - N/A   Clear
5:50 AM 57.2 °F 46.4 °F 67% 30.06 in - ESE 4.6 mph - N/A   Clear
6:20 AM 55.4 °F 44.6 °F 67% 30.06 in - Variable 1.2 mph - N/A   Clear
6:50 AM 57.2 °F 44.6 °F 63% 30.06 in - Variable 3.5 mph - N/A   Clear
7:20 AM 59.0 °F 44.6 °F 59% 30.06 in - ESE 4.6 mph - N/A   Clear
7:50 AM 62.6 °F 44.6 °F 52% 30.09 in - Variable 1.2 mph - N/A   Clear
8:00 AM 62 °F 46 °F 44% 30.09 in 6 mi 1.2 mph - -  
8:20 AM 66.2 °F 44.6 °F 46% 30.09 in - Variable 1.2 mph - N/A   Clear
8:50 AM 69.8 °F 44.6 °F 40% 30.09 in - Variable 1.2 mph - N/A   Clear
9:20 AM 71.6 °F 44.6 °F 38% 30.09 in - Variable 1.2 mph - N/A   Clear
9:50 AM 75.2 °F 46.4 °F 36% 30.09 in - Variable 1.2 mph - N/A   Clear
10:20 AM 77.0 °F 41.0 °F 28% 30.06 in - North 5.8 mph - N/A   Clear
10:50 AM 78.8 °F 41.0 °F 26% 30.06 in - NW 4.6 mph - N/A   Clear
11:00 AM 78 °F 39 °F 15% 30.07 in 6 mi NW 4.6 mph - -  
11:20 AM 78.8 °F 39.2 °F 24% 30.04 in - NW 6.9 mph - N/A   Clear
11:50 AM 80.6 °F 39.2 °F 23% 30.04 in - North 5.8 mph - N/A   Clear
12:20 PM 78.8 °F 51.8 °F 39% 30.04 in - NW 10.4 mph - N/A   Clear
12:50 PM 78.8 °F 50.0 °F 36% 30.01 in - NW 10.4 mph - N/A   Clear
1:20 PM 78.8 °F 53.6 °F 42% 30.01 in - NW 11.5 mph - N/A   Clear
1:50 PM 78.8 °F 55.4 °F 44% 30.01 in - NW 12.7 mph - N/A   Clear
2:00 PM 78 °F 55 °F 35% 30.02 in 6 mi NW 12.7 mph - -  
2:20 PM 77.0 °F 57.2 °F 50% 30.01 in - NW 13.8 mph - N/A   Clear
2:50 PM 77.0 °F 55.4 °F 47% 30.01 in - NW 13.8 mph - N/A   Clear
3:20 PM 77.0 °F 57.2 °F 50% 30.01 in - NW 13.8 mph - N/A   Clear
3:50 PM 75.2 °F 57.2 °F 53% 30.01 in - NNW 9.2 mph - N/A   Clear
4:20 PM 73.4 °F 57.2 °F 57% 30.04 in - NNW 10.4 mph - N/A   Clear
4:50 PM 73.4 °F 59.0 °F 61% 30.04 in - North 9.2 mph - N/A   Clear
5:00 PM 73 °F 58 °F 49% 30.04 in 6 mi NNW 9.2 mph - -  
5:50 PM 71.6 °F 59.0 °F 64% 30.04 in - North 4.6 mph - N/A   Clear
6:20 PM 71.6 °F 57.2 °F 60% 30.04 in - North 6.9 mph - N/A   Clear
6:50 PM 69.8 °F 57.2 °F 64% 30.04 in - North 5.8 mph - N/A   Clear
7:20 PM 69.8 °F 57.2 °F 64% 30.06 in - Variable 3.5 mph - N/A   Clear
7:50 PM 68.0 °F 57.2 °F 68% 30.06 in - Variable 3.5 mph - N/A   Clear
8:00 PM 69 °F 56 °F 55% 30.06 in 6 mi 3.5 mph - -  
8:20 PM 68.0 °F 55.4 °F 64% 30.06 in - Variable 3.5 mph - N/A   Clear
8:50 PM 66.2 °F 55.4 °F 68% 30.06 in - Variable 3.5 mph - N/A   Clear
9:20 PM 62.6 °F 51.8 °F 68% 30.06 in - Variable 3.5 mph - N/A   Clear
9:50 PM 62.6 °F 53.6 °F 72% 30.06 in - Variable 2.3 mph - N/A   Clear
10:20 PM 60.8 °F 51.8 °F 72% 30.06 in - Variable 3.5 mph - N/A   Clear
10:50 PM 60.8 °F 53.6 °F 77% 30.06 in - Variable 3.5 mph - N/A   Clear
11:00 PM 61 °F 53 °F 66% 30.06 in 6 mi 3.5 mph - -   Clear
11:20 PM 60.8 °F 51.8 °F 72% 30.06 in - Variable 2.3 mph - N/A   Clear
11:50 PM 60.8 °F 51.8 °F 72% 30.04 in - Variable 3.5 mph - N/A   Clear